Location: Boiro
(42.6475°N, 8.8834°W)
Time: 02:33:23
(UTC+01:00)

S-56A Canister/Altair - Pass Details

Date: 08 December 2021
Orbit: 633 x 2499 km, 38.9° (Epoch: 18 January)

Event Time Altitude Azimuth Distance (km) Brightness Sun altitude
Rises 23:19:11 0° 229° (SW) 5,973 12.2 -56.8°
Reaches altitude 10° 23:23:35 10° 224° (SW) 4,788 11.6 -57.5°
Enters shadow 23:24:57 14° 222° (SW) 4,418 11.4 -57.7°
